Regional Weather Roundup
Issued by NWS

Home | Current Version | Previous Version | Graphics & Text | Print | Product List | Glossary On
Versions: 1 2 3 4 5 6 7 8 9 10 11 12 13 14 15 16 17 18 19 20 21 22 23 24 25 26 27 28 29 30 31 32 33 34 35 36 37 38 39 40 41 42 43 44 45 46 47 48 49 50
000
ASUS43 KOAX 281202
RWRNE

WEATHER ROUNDUP FOR NEBRASKA
NATIONAL WEATHER SERVICE OMAHA NE
600 AM CST FRI NOV 28 2014

NOTES: SATELLITE DATA IS BEING USED TO AUGMENT CLOUD COVER ABOVE
       12000 FEET.
       "FAIR" INDICATES FEW OR NO CLOUDS BELOW 12,000 FEET WITH NO
       SIGNIFICANT WEATHER AND/OR OBSTRUCTIONS TO VISIBILITY.

  * THESE STATIONS DO NOT REPORT WEATHER SUCH AS RAIN...SNOW OR FOG.

NEZ001>004-019>022-054>056-281300-
NEBRASKA PANHANDLE

CITY           SKY/WX    TMP DP  RH WIND       PRES   REMARKS
SCOTTSBLUFF    PTCLDY    34  25  69 N7        29.85F WCI  28
6HR MIN TEMP:  29; 6HR MAX TEMP:  36;

ALLIANCE       PTCLDY    29  23  78 W6        29.83F WCI  23
6HR MIN TEMP:  25; 6HR MAX TEMP:  30;

CHADRON        PTCLDY   N/A N/A N/A W8        29.79S
SIDNEY         MOCLDY    32  25  75 W12       29.91F WCI  23
6HR MIN TEMP:  28; 6HR MAX TEMP:  37;

$$

NEZ057>060-069>072-079>082-281300-
SOUTHWEST NEBRASKA

CITY           SKY/WX    TMP DP  RH WIND       PRES   REMARKS
NORTH PLATTE   CLEAR     21  19  92 NW6       29.88F WCI  13
6HR MIN TEMP:  19; 6HR MAX TEMP:  24;

IMPERIAL       PTCLDY    33  23  66 W5        29.90F WCI  29
6HR MIN TEMP:  33; 6HR MAX TEMP:  42;

MCCOOK         PTCLDY    31  24  75 W6        29.90F WCI  25
6HR MIN TEMP:  30; 6HR MAX TEMP:  38;

$$

NEZ005>010-023>029-035>040-094-281300-
NORTH CENTRAL NEBRASKA

CITY           SKY/WX    TMP DP  RH WIND       PRES   REMARKS
VALENTINE      PTCLDY    30  27  88 W6        29.78F WCI  24
6HR MIN TEMP:  30; 6HR MAX TEMP:  37;

BROKEN BOW     CLEAR     31  22  69 W6        29.84F WCI  25
6HR MIN TEMP:  20; 6HR MAX TEMP:  37;

ORD            PTCLDY    16  14  92 NW3       29.84F
6HR MIN TEMP:  14; 6HR MAX TEMP:  22;

$$

NEZ041-046>049-061>064-073>077-083>087-281300-
SOUTH CENTRAL NEBRASKA

CITY           SKY/WX    TMP DP  RH WIND       PRES   REMARKS
GRAND ISLAND   PTCLDY    25  19  78 SW7       29.86F WCI  17
6HR MIN TEMP:  23; 6HR MAX TEMP:  28;

AURORA         PTCLDY    25  19  79 SW6       29.86F WCI  18
HASTINGS       CLEAR     25  18  74 W8        29.86F WCI  16
6HR MIN TEMP:  24; 6HR MAX TEMP:  31;

KEARNEY *      PTCLDY    27  19  74 S8        29.87F WCI  18
YORK           PTCLDY    25  19  80 SW6       29.89F WCI  18
$$

NEZ011>018-030>034-042>045-281300-
NORTHEAST NEBRASKA

CITY           SKY/WX    TMP DP  RH WIND       PRES   REMARKS
NORFOLK        CLEAR     25  19  78 S5        29.84F WCI  19
6HR MIN TEMP:  23; 6HR MAX TEMP:  27;

BLAIR          CLEAR     28  22  79 S9        29.90F WCI  19
COLUMBUS *     PTCLDY    25  16  68 S5        29.88F WCI  19
TEKAMAH        CLEAR     21  17  84 S7        29.92F WCI  12
6HR MIN TEMP:  21; 6HR MAX TEMP:  25;

$$

NEZ050>053-065>068-078-088>093-281300-
SOUTHEAST NEBRASKA

CITY           SKY/WX    TMP DP  RH WIND       PRES   REMARKS
LINCOLN        PTCLDY    25  19  78 S3        29.93F
6HR MIN TEMP:  25; 6HR MAX TEMP:  29;

OMAHA EPPLEY   PTCLDY    28  22  78 S12       29.94F WCI  18
6HR MIN TEMP:  25; 6HR MAX TEMP:  28;

FALLS CITY     CLEAR     30  23  75 S7        29.96F WCI  23
6HR MIN TEMP:  26; 6HR MAX TEMP:  31;

$$

NEZ044-045-051>053-067-281300-
OMAHA AREA

CITY           SKY/WX    TMP DP  RH WIND       PRES   REMARKS
OMAHA EPPLEY   PTCLDY    28  22  78 S12       29.94F WCI  18
6HR MIN TEMP:  25; 6HR MAX TEMP:  28;

BLAIR          CLEAR     28  22  79 S9        29.90F WCI  19
OFFUTT AFB     CLEAR     25  21  85 E6        29.93F WCI  18
$$


USA.gov is the U.S. government's official web portal to all federal, state and local government web resources and services.